Regional Weather Roundup
Issued by NWS State College, PA

Home | Current Version | Previous Version | Graphics & Text | Print | Product List | Glossary Off
Versions: 1 2 3 4 5 6 7 8 9 10 11 12 13 14 15 16 17 18 19 20 21 22 23 24 25 26 27 28 29 30 31 32 33 34 35 36 37 38 39 40 41 42 43 44 45 46 47 48 49 50

000
ASUS41 KCTP 231903
RWRCTP

REGIONAL WEATHER ROUNDUP
NATIONAL WEATHER SERVICE STATE COLLEGE PA
300 PM EDT SAT JUL 23 2016

Note: "fair" indicates few or no clouds below 12,000 feet with no
significant weather and/or obstructions to visibility.

* = STATION THAT DOES NOT REPORT PRECIPITATION /E.G. RAIN...SNOW...ETC/
    THUNDER OR FOG.

PAZ002>004-007>009-013>016-020>023-029>032-232000-
WESTERN PENNSYLVANIA

CITY           SKY/WX    TMP DP  RH WIND       PRES   REMARKS
ERIE           SUNNY     85  66  53 NW6       29.99F
MEADVILLE      MOSUNNY   87  59  38 NW10      30.02S
FRANKLIN*      SUNNY     88  61  40 NW7       30.04F
NEW CASTLE     FAIR      91  64  40 N5        30.00F
BEAVER COUNTY  MOSUNNY   93  68  43 N8        30.00S HX  97
BUTLER*        MOSUNNY   88  68  51 N6        30.02F
PITTSBURGH INT PTSUNNY   85  72  65 N6        29.99S
PITTSBURGH     LGT RAIN  83  70  64 N12G21    29.99S
INDIANA*       MOSUNNY   90  66  45 NW9G16    30.02S
LATROBE        PTSUNNY   88  72  58 W5        29.99F
WASHINGTON CO* PTSUNNY   91  70  49 SW9       30.00F HX  97
$$

PAZ004>006-010>012-017>019-024>028-033>037-041-042-045-046-049>053-232000-
CENTRAL PENNSYLVANIA

CITY           SKY/WX    TMP DP  RH WIND       PRES   REMARKS
BRADFORD       SUNNY     85  53  33 W18G25    30.03R
DUBOIS         MOSUNNY   89  57  33 NW10G21   30.01S
CLEARFIELD     MOSUNNY   94  55  26 W12G24    29.99S
JOHNSTOWN      MOSUNNY   86  64  47 W13G22    30.05S THUNDER HAZE
ALTOONA        SUNNY     94  62  34 W12       29.98F
STATE COLLEGE  MOSUNNY   93  59  31 NW12G29   29.95S
WILLIAMSPORT   MOSUNNY   94  54  25 NW12G18   29.87R
SELINSGROVE    MOSUNNY   96  63  33 VRB6G20   29.89S HX  97
FT INDIANTOWN  SUNNY     96  63  32 NW12G23   29.88F HX  97
CAPITAL CITY   MOSUNNY   97  67  37 W10       29.87F HX 101
HARRISBURG     PTSUNNY   94  69  44 W8        29.86F HX  99
YORK             N/A     92  71  50 SW10      29.89F HX  98
$$

PAZ038>040-043-044-047-048-054-055-060>062-067>071-232000-
EASTERN PENNSYLVANIA

CITY           SKY/WX    TMP DP  RH WIND       PRES   REMARKS
SCRANTON       PTSUNNY   92  54  27 NW14      29.89S
MOUNT POCONO   MOSUNNY   85  32  15 NW9       29.95S
ALLENTOWN      SUNNY     95  54  25 W10G23    29.87F
QUAKERTOWN*    CLEAR     95  59  30 CALM      29.89S
READING        PTSUNNY   97  63  32 NW9       29.85F HX  98
LANCASTER      SUNNY     93  69  45 W15G23    29.87F HX  98
COATESVILLE    PTCLDY    91  72  52 W10       29.92F HX  98
POTTSTOWN      PTSUNNY   96  65  35 VRB7      29.87F HX  98
BLUE BELL      PTSUNNY   90  68  48 SW9       29.85F
DOYLESTOWN     MOSUNNY   94  57  28 W8        29.86F
WILLOW GROVE   NOT AVBL
NORTH PHILA    MOSUNNY   94  69  44 W12       29.86F HX  99
PHILADELPHIA   MOSUNNY   95  66  38 W17G23    29.86F HX  98
$$




USA.gov is the U.S. government's official web portal to all federal, state and local government web resources and services.